KB0KQA Weather Reports


Display with metric or nautical units.
time (UTC)temp
F
wind
direction
speed
MPH
gust
MPH
rain 1hr
in
rain 24hr
in
rain mn
in
humidity
%
barometer
mb
20260906200007 82 111 1.0 8.0 0.00 0.04 0.04 73 1019.3
20260906195008 83 70 1.0 6.0 0.00 0.04 0.04 72 1019.2
20260906194007 83 176 2.0 6.0 0.00 0.04 0.04 75 1019.3
20260906193008 82 209 2.0 6.0 0.00 0.04 0.04 76 1019.3
20260906192027 82 236 1.0 5.0 0.00 0.04 0.04 75 1019.5
20260906191008 81 144 1.0 7.0 0.00 0.04 0.04 80 1019.7
20260906190007 81 174 2.0 5.0 0.00 0.04 0.04 82 1019.8
20260906185008 80 57 1.0 4.0 0.00 0.04 0.04 82 1019.7
20260906184027 80 76 1.0 5.0 0.00 0.04 0.04 84 1019.7
20260906183008 80 0.0 0.0 0.00 0.04 0.04 83 1019.7
20260906182027 80 154 1.0 3.0 0.00 0.04 0.04 81 1019.8
20260906181008 81 0.0 0.0 0.00 0.04 0.04 82 1020.0
20260906180007 80 185 1.0 6.0 0.00 0.04 0.04 83 1020.2
20260906175008 79 218 2.0 6.0 0.00 0.04 0.04 88 1020.3
20260906174007 78 161 0.0 3.0 0.00 0.04 0.04 89 1020.4
20260906173007 78 184 0.0 3.0 0.00 0.04 0.04 88 1020.7
20260906172007 77 166 1.0 7.0 0.00 0.04 0.04 91 1020.8
20260906171007 77 0.0 0.0 0.00 0.04 0.04 92 1020.9
20260906170027 76 200 0.0 3.0 0.00 0.04 0.04 93 1021.0
20260906165008 76 124 0.0 3.0 0.00 0.04 0.04 95 1021.1
20260906164008 74 0.0 0.0 0.00 0.04 0.04 97 1021.1
20260906163028 72 0.0 0.0 0.00 0.04 0.04 100 1021.0
20260906162008 72 0.0 0.0 0.00 0.04 0.04 100 1021.0
20260906161007 72 0.0 0.0 0.00 0.04 0.04 100 1021.1
20260906160008 71 0.0 0.0 0.00 0.04 0.04 100 1020.9
20260906155008 70 104 0.0 2.0 0.00 0.04 0.04 100 1020.9
20260906154008 70 144 1.0 5.0 0.00 0.04 0.04 100 1020.7
20260906153007 70 0.0 0.0 0.00 0.04 0.04 100 1020.9
20260906152028 69 0.0 0.0 0.00 0.04 0.04 100 1020.8
20260906151027 68 0.0 0.0 0.00 0.04 0.04 100 1020.9
20260906150007 68 0.0 0.0 0.00 0.04 0.04 100 1020.9
20260906145007 68 0.0 0.0 0.00 0.04 0.04 100 1020.8
20260906144027 68 0.0 0.0 0.00 0.04 0.04 100 1020.9
20260906143007 68 0.0 0.0 0.00 0.04 0.04 100 1020.9
20260906142007 67 0.0 0.0 0.00 0.04 0.04 100 1020.7
20260906141007 67 0.0 0.0 0.00 0.04 0.04 100 1020.8
20260906140007 67 0.0 0.0 0.00 0.04 0.04 100 1020.7
20260906135007 66 0.0 0.0 0.00 0.04 0.04 100 1020.8
20260906134007 66 0.0 0.0 0.00 0.04 0.04 100 1020.7
20260906133007 66 0.0 0.0 0.00 0.04 0.04 100 1020.6
20260906132007 66 0.0 0.0 0.02 0.04 0.04 100 1020.5
20260906131008 66 0.0 0.0 0.02 0.04 0.04 100 1020.6
20260906130007 65 0.0 0.0 0.02 0.04 0.04 100 1020.8
20260906125008 65 0.0 0.0 0.02 0.04 0.04 100 1020.7
20260906124007 65 0.0 0.0 0.02 0.04 0.04 100 1020.7
20260906123008 65 0.0 0.0 0.02 0.04 0.04 100 1020.7
20260906122007 65 41 0.0 4.0 0.00 0.02 0.02 100 1019.8
20260906121008 64 0.0 0.0 0.00 0.02 0.02 100 1020.5
20260906120007 64 0.0 0.0 0.00 0.02 0.02 100 1020.4
20260906115008 64 0.0 0.0 0.00 0.02 0.02 100 1020.6
20260906114007 64 0.0 0.0 0.00 0.02 0.02 100 1020.6
20260906113007 64 0.0 0.0 0.00 0.02 0.02 100 1020.6
20260906112007 64 0.0 0.0 0.02 0.02 0.02 100 1020.9
20260906111007 64 117 0.0 3.0 0.02 0.02 0.02 100 1018.8
20260906110007 64 0.0 0.0 0.02 0.02 0.02 100 1020.5
20260906105007 64 0.0 0.0 0.02 0.02 0.02 100 1021.0
20260906104007 64 0.0 0.0 0.02 0.02 0.02 100 1021.2
20260906103027 64 0.0 0.0 0.02 0.02 0.02 100 1019.7
20260906102047 64 0.0 0.0 0.00 0.00 0.00 100 1020.2
20260906101007 64 0.0 0.0 0.00 0.00 0.00 100 1020.4
20260906100027 64 0.0 0.0 0.00 0.00 0.00 100 1019.9
20260906095007 64 0.0 0.0 0.00 0.00 0.00 100 1019.6
20260906094008 64 0.0 0.0 0.00 0.00 0.00 100 1019.5
20260906093007 64 0.0 0.0 0.00 0.00 0.00 100 1019.3
20260906092008 64 0.0 0.0 0.00 0.00 0.00 100 1019.0
20260906091007 64 0.0 0.0 0.00 0.00 0.00 100 1018.9
20260906090008 64 0.0 0.0 0.00 0.00 0.00 100 1019.1
20260906085007 63 0.0 0.0 0.00 0.00 0.00 100 1019.3
20260906084008 63 0.0 0.0 0.00 0.00 0.00 100 1019.4
20260906083007 63 0.0 0.0 0.00 0.00 0.00 100 1019.6
20260906082008 64 0.0 0.0 0.00 0.00 0.00 100 1019.8
20260906081007 64 0.0 0.0 0.00 0.00 0.00 100 1020.2
20260906080007 64 0.0 0.0 0.00 0.00 0.00 100 1019.8
20260906075027 64 0.0 0.0 0.00 0.00 0.00 100 1019.7
20260906074028 63 0.0 0.0 0.00 0.00 0.00 100 1019.8
20260906073007 64 0.0 0.0 0.00 0.00 0.00 100 1019.7
20260906072007 64 0.0 0.0 0.00 0.00 0.00 100 1019.7
20260906071007 64 0.0 0.0 0.00 0.00 0.00 100 1019.9
20260906070007 63 0.0 0.0 0.00 0.00 0.00 100 1020.1
20260906065007 64 0.0 0.0 0.00 0.00 0.00 100 1020.0
20260906064007 64 0.0 0.0 0.00 0.00 0.00 100 1020.2
20260906063007 64 0.0 0.0 0.00 0.00 0.00 100 1020.2
20260906062007 64 0.0 0.0 0.00 0.00 0.00 100 1020.3
20260906061027 63 0.0 0.0 0.00 0.00 0.00 100 1020.2
20260906060008 64 0.0 0.0 0.00 0.00 0.00 100 1020.3
20260906055008 64 0.0 0.0 0.00 0.00 0.00 100 1020.1
20260906054007 64 0.0 0.0 0.00 0.00 0.00 100 1020.1
20260906053028 64 0.0 0.0 0.00 0.00 0.00 100 1020.1
20260906052007 63 0.0 0.0 0.00 0.00 0.00 100 1020.3
20260906051008 63 0.0 0.0 0.00 0.00 0.00 100 1020.3
20260906050007 62 0.0 0.0 0.00 0.00 0.00 100 1020.2
20260906045027 62 0.0 0.0 0.00 0.00 0.00 100 1020.3
20260906044007 63 0.0 0.0 0.00 0.00 0.00 100 1020.4
20260906043028 63 0.0 0.0 0.00 0.00 0.00 100 1020.4
20260906042007 63 0.0 0.0 0.00 0.00 0.00 100 1020.4
20260906041008 63 0.0 0.0 0.00 0.00 0.00 100 1020.3
20260906040007 63 0.0 0.0 0.00 0.00 0.00 100 1020.2
20260906035007 63 0.0 0.0 0.00 0.00 0.00 100 1020.4
20260906034007 63 0.0 0.0 0.00 0.00 0.00 100 1020.3
20260906033008 63 0.0 0.0 0.00 0.00 0.00 100 1020.1
20260906032007 63 0.0 0.0 0.00 0.00 0.00 100 1020.0
20260906031007 63 0.0 0.0 0.00 0.00 0.00 100 1020.0
20260906030007 64 0.0 0.0 0.00 0.00 0.00 100 1020.1
20260906025007 64 0.0 0.0 0.00 0.00 0.00 100 1020.0
20260906024007 64 0.0 0.0 0.00 0.00 0.00 100 1019.7
20260906023007 64 0.0 0.0 0.00 0.00 0.00 100 1019.9
20260906022028 64 0.0 0.0 0.00 0.00 0.00 100 1020.0
20260906021007 64 0.0 0.0 0.00 0.00 0.00 100 1019.9
20260906020008 64 0.0 0.0 0.00 0.00 0.00 100 1019.9
20260906015007 65 0.0 0.0 0.00 0.00 0.00 100 1019.7
20260906014008 65 0.0 0.0 0.00 0.00 0.00 100 1019.6
20260906013007 65 0.0 0.0 0.00 0.00 0.00 100 1019.7
20260906012008 66 0.0 0.0 0.00 0.00 0.00 100 1019.6
20260906011007 66 0.0 0.0 0.00 0.00 0.00 100 1019.3
20260906010028 66 0.0 0.0 0.00 0.00 0.00 100 1018.7
20260906005027 67 0.0 0.0 0.00 0.00 0.00 100 1018.4
20260906004008 67 0.0 0.0 0.00 0.00 0.00 100 1018.2
20260906003007 67 0.0 0.0 0.00 0.00 0.00 100 1018.1
20260906002007 68 0.0 0.0 0.00 0.00 0.00 99 1018.2
20260906001007 68 0.0 0.0 0.00 0.00 0.00 99 1018.2
20260906000008 68 0.0 0.0 0.00 0.00 0.00 98 1018.1
20260905235007 68 224 0.0 3.0 0.00 0.00 0.00 97 1018.2
20260905234028 69 0.0 0.0 0.00 0.00 0.00 96 1018.2
20260905233007 69 0.0 0.0 0.00 0.00 0.00 93 1018.4
20260905232008 69 0.0 0.0 0.00 0.00 0.00 93 1018.4
20260905231007 69 70 1.0 5.0 0.00 0.00 0.00 92 1018.5
20260905230008 71 0.0 0.0 0.00 0.00 0.00 91 1018.6
20260905225008 71 192 4.0 8.0 0.00 0.00 0.00 91 1018.5
20260905224007 71 120 0.0 2.0 0.00 0.00 0.00 90 1018.4
20260905223008 71 86 1.0 3.0 0.00 0.00 0.00 89 1018.2
20260905222007 71 212 0.0 3.0 0.00 0.00 0.00 90 1017.9
20260905221008 71 141 1.0 9.0 0.00 0.00 0.00 90 1017.7
20260905220007 71 168 1.0 7.0 0.00 0.00 0.00 90 1017.8
20260905215008 71 192 0.0 5.0 0.00 0.00 0.00 90 1018.2
20260905214007 71 166 1.0 5.0 0.00 0.00 0.00 90 1018.5
20260905213007 69 225 2.0 6.0 0.00 0.00 0.00 91 1018.4
20260905212007 68 114 3.0 7.0 0.00 0.00 0.00 93 1018.2
20260905211008 69 105 1.0 6.0 0.00 0.00 0.00 93 1018.4
20260905210027 68 193 2.0 6.0 0.00 0.00 0.00 96 1018.6
20260905205008 68 0.0 0.0 0.00 0.00 0.00 100 1018.9
20260905204007 67 137 2.0 5.0 0.00 0.00 0.00 100 1018.9
20260905203007 67 69 0.0 3.0 0.00 0.00 0.00 100 1018.4
20260905202007 67 92 0.0 3.0 0.00 0.00 0.00 100 1019.3
20260905201008 67 196 1.0 6.0 0.00 0.00 0.00 100 1019.9